[[{"header":{"parameterUnit":"m.s-1","parameterCategory":1,"la1":30.2991,"la2":30.254,"lo1":-89.0895,"lo2":-89.0444,"dy":0.0017,"dx":0.0017,"nx":28,"ny":28,"refTime":"2024-05-13T03:00:00:Z","depth":0,"parameterNumber":2,"parameterNumberName":"U-component_of_WINDS"},"data":[0,0,0,0,0,0,0,0,0,0,0,0,0,0,0,0,0,0,0,0,0,0,0,0,0,0,0,0,0,0,0,0,0,0,0,0,0,0,0,0,0,0,0,0,0,0,0,0,0,0,0,0,0,0,0,0,0,0,-5.4814,-5.4814,0,-5.4833,-5.4833,-5.4833,-5.4734,-5.4731,-5.4728,-5.4726,-5.4743,-5.4746,-5.4749,0,0,0,0,0,0,0,0,0,0,0,0,0,-5.4689,-5.4692,-5.4814,-5.4814,-5.4814,-5.4833,-5.4833,-5.4833,-5.4734,-5.4731,-5.4728,-5.4724,-5.4742,-5.4746,-5.4749,0,0,0,0,0,0,0,0,0,0,0,0,0,-5.4729,-5.4693,-5.4814,-5.4767,-5.4763,-5.4833,-5.4833,-5.4833,-5.4735,-5.4731,-5.4727,-5.4723,-5.4741,-5.4745,-5.475,-5.4864,0,0,-5.4764,-5.4766,0,0,0,0,0,0,0,0,-5.4727,-5.4734,-5.4774,-5.4771,-5.4766,-5.4777,-5.4795,-5.4844,-5.4736,-5.4746,-5.4725,-5.4721,-5.4757,-5.476,-5.4773,-5.4865,-5.4866,-5.4764,-5.4767,-5.4769,-5.4771,0,0,0,0,0,0,0,-5.4725,-5.4733,-5.4821,-5.4775,-5.477,-5.4745,-5.4746,-5.4804,-5.4775,-5.4745,-5.4737,-5.4741,-5.4754,-5.4769,-5.4773,-5.4866,-5.4764,-5.4768,-5.4771,-5.4773,-5.5049,-5.5054,0,0,0,0,0,0,-5.4728,-5.4731,-5.4821,-5.4822,-5.4736,-5.475,-5.4751,-5.4778,-5.4774,-5.477,-5.4745,-5.4737,-5.4763,-5.4768,-5.4773,-5.4904,-5.4769,-5.4774,-5.4776,-5.5045,-5.505,-5.5055,0,0,0,0,0,0,-5.4726,-5.4737,-5.482,-5.4775,-5.4783,-5.4757,-5.4787,-5.478,-5.4794,-5.4775,-5.4769,-5.4765,-5.476,-5.4767,-5.4842,-5.4903,-5.4776,-5.478,-5.504,-5.5047,-5.5053,-5.5168,0,0,0,0,0,0,-5.4723,-5.4737,-5.4781,-5.4776,-5.4786,-5.4889,-5.4791,-5.4784,-5.4803,-5.4792,-5.4792,-5.4788,-5.4757,-5.4835,-5.4846,-5.4907,-5.4784,-5.5034,-5.5043,-5.5051,-5.5158,-5.5178,-5.5194,0,0,0,0,0,-5.4719,-5.4813,-5.4784,-5.4795,-5.484,-5.4893,-5.4898,-5.4861,-5.4809,-5.4851,-5.4839,-5.4788,-5.4896,-5.4844,-5.4855,-5.4919,-5.503,-5.504,-5.505,-5.515,-5.5174,-5.5194,0,0,0,0,0,0,-5.4824,-5.4811,-5.4779,-5.4874,-5.4885,-5.4876,-5.4929,-5.4888,-5.4914,-5.4903,-5.4856,-5.4857,-5.4939,-5.4937,-5.4879,-5.5028,-5.4953,-5.4966,-5.5026,-5.5048,-5.5066,-5.5062,-5.4788,0,0,0,0,0,-5.4859,-5.4904,-5.489,-5.4975,-5.4982,-5.4955,-5.4977,-5.4948,-5.4957,-5.4961,-5.4954,-5.4964,-5.5,-5.5025,-5.5057,-5.5159,-5.5156,-5.5209,-5.5227,-5.5241,-5.5252,-5.5303,-5.5325,-5.5089,-5.5089,-5.5089,0,0,-5.493,-5.4929,-5.4959,-5.4996,-5.5001,-5.5047,-5.496,-5.5012,-5.5045,-5.4969,-5.5038,-5.5034,-5.5042,-5.5131,-5.517,-5.5131,-5.5317,-5.5254,-5.5266,-5.5269,-5.5316,-5.5338,-5.5358,-5.5096,-5.5094,-5.5093,0,0,-5.5082,-5.5087,-5.5157,-5.5165,-5.5174,-5.5155,-5.5173,-5.517,-5.5163,-5.5233,-5.5176,-5.5215,-5.5279,-5.5286,-5.5298,-5.5454,-5.5407,-5.5467,-5.5559,-5.5609,-5.5628,-5.5644,-5.5696,-5.5716,-5.5478,-5.5478,-5.5479,0,-5.5169,-5.5236,-5.5198,-5.5254,-5.5271,-5.5206,-5.5275,-5.5284,-5.5303,-5.5316,-5.5274,-5.5351,-5.5353,-5.544,-5.5479,-5.5492,-5.5508,-5.5464,-5.5628,-5.5644,-5.5659,-5.5708,-5.5728,-5.5485,-5.5484,-5.5484,-5.5483,0,-5.5341,-5.5389,-5.5444,-5.5464,-5.5488,-5.5551,-5.5521,-5.5549,-5.5519,-5.5505,-5.5575,-5.5575,-5.5605,-5.5625,-5.5596,-5.5708,-5.5684,-5.5637,-5.5559,-5.5689,-5.5733,-5.5752,-5.5495,-5.5492,-5.549,-5.5489,0,0,-5.5557,-5.5556,-5.5576,-5.5584,-5.559,-5.5625,-5.5685,-5.5715,-5.5738,-5.5755,-5.5801,-5.5858,-5.5813,-5.5827,-5.5799,-5.5844,-5.5963,-5.579,-5.5789,-5.5819,-5.6083,-5.6116,-5.6139,-5.5934,-5.5938,-5.5941,-5.6081,0,-5.5702,-5.5803,-5.5771,-5.5873,-5.5914,-5.5854,-5.5905,-5.5914,-5.5903,-5.5936,-5.5924,-5.5962,-5.5903,-5.591,-5.5953,-5.594,-5.6015,-5.593,-5.5974,-5.5976,-5.5969,-5.6163,-5.6198,-5.633,-5.6099,-5.6102,-5.6104,0,-5.5885,-5.5908,-5.6014,-5.6011,-5.6028,-5.6075,-5.6098,-5.6132,-5.614,-5.6129,-5.6145,-5.6108,-5.6164,-5.6091,-5.6167,-5.611,-5.6127,-5.6124,-5.6128,-5.6127,-5.6045,-5.6163,-5.6372,-5.6391,-5.6132,-5.613,-5.6128,0,-5.6027,-5.6085,-5.6155,-5.6164,-5.6164,-5.6198,-5.6199,-5.6203,-5.6223,-5.6244,-5.6256,-5.6284,-5.6298,-5.6321,-5.6291,-5.6241,-5.637,-5.6295,-5.636,-5.6361,-5.6386,-5.6384,-5.6597,-5.6405,-5.6405,-5.6404,-5.6404,0,-5.619,-5.6256,-5.6218,-5.6261,-5.6333,-5.6296,-5.6368,-5.6362,-5.6367,-5.6406,-5.6357,-5.6395,-5.6356,-5.639,-5.6368,-5.6432,-5.644,-5.6431,-5.6423,-5.6433,-5.6433,-5.644,-5.6428,-5.6409,-5.6408,-5.6407,-5.6406,0,-5.6359,-5.6337,-5.6408,-5.6403,-5.6403,-5.6456,-5.645,-5.6489,-5.6475,-5.6525,-5.6535,-5.6513,-5.655,-5.6524,-5.6562,-5.6547,-5.6631,-5.6613,-5.6628,-5.6621,-5.6685,-5.6678,-5.6906,-5.6932,-5.6728,-5.673,-5.6732,0,-5.6462,-5.6512,-5.6511,-5.6534,-5.6539,-5.6578,-5.6597,-5.6563,-5.6585,-5.6598,-5.6635,-5.6669,-5.6693,-5.6756,-5.6742,-5.6771,-5.675,-5.6828,-5.6754,-5.6761,-5.6746,-5.6742,-5.6745,-5.6842,-5.6844,-5.6846,-5.6848,0,-5.6647,-5.6634,-5.6664,-5.6691,-5.6716,-5.6735,-5.675,-5.6772,-5.6737,-5.6764,-5.6802,-5.6822,-5.686,-5.6893,-5.6917,-5.6917,-5.6876,-5.6872,-5.6888,-5.6896,-5.6901,-5.6895,-5.6664,-5.6866,-5.6864,-5.6863,-5.6862,-5.6861,-5.6784,-5.6824,-5.6829,-5.6864,-5.6872,-5.6887,-5.6923,-5.6913,-5.6944,-5.6973,-5.6951,-5.6996,-5.7002,-5.7029,-5.7035,-5.7069,-5.7036,-5.706,-5.7065,-5.7071,-5.7078,-5.6899,-5.7073,-5.7073,-5.7072,-5.7072,-5.7072,0,-5.6962,-5.6963,-5.6996,-5.7018,-5.7046,-5.7007,-5.7022,-5.7047,-5.7086,-5.7096,-5.7122,-5.7164,-5.7196,-5.7186,-5.7214,-5.7243,-5.7225,-5.7251,-5.7246,-5.7247,-5.7107,-5.7089,-5.7265,-5.7265,-5.7265,-5.7265,-5.7265,-5.7265,-5.7058,-5.7123,-5.711,-5.7178,-5.7178,-5.7221,-5.7232,-5.7246,-5.7253,-5.7303,-5.7329,-5.7323,-5.7324,-5.7352,-5.7379,-5.7375,-5.7386,-5.7418,-5.7407,-5.7276,-5.7257,-5.7238,-5.7221,-5.7422,-5.7422,-5.7543,-5.7545,-5.7545]},{"header":{"parameterUnit":"m.s-1","parameterCategory":1,"la1":30.2991,"la2":30.254,"lo1":-89.0895,"lo2":-89.0444,"dy":0.0017,"dx":0.0017,"nx":28,"ny":28,"refTime":"2024-05-13T03:00:00:Z","depth":0,"parameterNumber":3,"parameterNumberName":"V-component_of_WINDS"},"data":[0,0,0,0,0,0,0,0,0,0,0,0,0,0,0,0,0,0,0,0,0,0,0,0,0,0,0,0,0,0,0,0,0,0,0,0,0,0,0,0,0,0,0,0,0,0,0,0,0,0,0,0,0,0,0,0,0,0,2.1828,2.1828,0,2.1872,2.1873,2.1873,2.1794,2.1792,2.1789,2.1786,2.1832,2.1836,2.1839,0,0,0,0,0,0,0,0,0,0,0,0,0,2.1676,2.1679,2.1828,2.1828,2.1829,2.1872,2.1873,2.1874,2.1795,2.1791,2.1788,2.1785,2.1831,2.1835,2.184,0,0,0,0,0,0,0,0,0,0,0,0,0,2.1733,2.168,2.1828,2.1795,2.1792,2.1872,2.1873,2.1874,2.1795,2.1791,2.1787,2.1784,2.183,2.1835,2.184,2.1955,0,0,2.1857,2.186,0,0,0,0,0,0,0,0,2.173,2.1739,2.1799,2.1797,2.1794,2.1824,2.1836,2.1901,2.1796,2.1794,2.1786,2.1782,2.1833,2.1838,2.1855,2.1957,2.1959,2.1858,2.1861,2.1864,2.1865,0,0,0,0,0,0,0,2.1726,2.1736,2.1845,2.18,2.1797,2.1778,2.1782,2.1848,2.1835,2.1794,2.1788,2.1795,2.1831,2.185,2.1855,2.1959,2.1858,2.1863,2.1866,2.1868,2.2159,2.2163,0,0,0,0,0,0,2.1726,2.1734,2.1844,2.1847,2.1752,2.1784,2.1788,2.1818,2.1834,2.1833,2.1798,2.1791,2.1842,2.1849,2.1857,2.1992,2.1864,2.1869,2.1872,2.2154,2.216,2.2164,0,0,0,0,0,0,2.1723,2.1737,2.1842,2.1789,2.1801,2.1791,2.1825,2.1821,2.184,2.1837,2.1835,2.182,2.1839,2.1849,2.1931,2.1992,2.1871,2.1876,2.2149,2.2156,2.2162,2.2262,0,0,0,0,0,0,2.1719,2.1736,2.1779,2.179,2.1804,2.1916,2.1829,2.1825,2.185,2.1841,2.1857,2.1856,2.1837,2.1923,2.1937,2.1997,2.1881,2.2144,2.2152,2.216,2.2253,2.2272,2.2287,0,0,0,0,0,2.1714,2.1805,2.1781,2.1795,2.1857,2.1919,2.1927,2.1903,2.1855,2.1898,2.1897,2.1855,2.1984,2.1932,2.1947,2.201,2.214,2.215,2.2159,2.2246,2.2268,2.2287,0,0,0,0,0,0,2.18,2.1806,2.1779,2.1877,2.1898,2.1906,2.1959,2.1927,2.1962,2.1952,2.1922,2.1926,2.2015,2.2021,2.1964,2.2122,2.2054,2.2067,2.2115,2.2136,2.2152,2.2148,2.1885,0,0,0,0,0,2.1831,2.188,2.1883,2.1968,2.1981,2.1969,2.1995,2.1975,2.1996,2.2004,2.2009,2.2031,2.2076,2.2106,2.2148,2.2255,2.2257,2.2306,2.2323,2.2336,2.2348,2.2406,2.2427,2.2197,2.2197,2.2197,0,0,2.1893,2.1903,2.1936,2.1986,2.2,2.2053,2.1976,2.2035,2.2074,2.2013,2.2091,2.2096,2.2118,2.2214,2.2256,2.2221,2.2412,2.2349,2.236,2.2364,2.2418,2.244,2.2459,2.2203,2.2202,2.2201,0,0,2.2035,2.2047,2.212,2.2137,2.216,2.2151,2.2169,2.2182,2.2183,2.2261,2.2217,2.2263,2.2342,2.236,2.238,2.2532,2.2495,2.2546,2.2633,2.269,2.2708,2.2724,2.2778,2.2798,2.2558,2.2558,2.2558,0,2.211,2.2188,2.2162,2.2224,2.2248,2.2196,2.2271,2.2288,2.2323,2.2341,2.2302,2.2401,2.2413,2.2512,2.2549,2.2567,2.2587,2.2543,2.2708,2.2723,2.2738,2.2789,2.281,2.2564,2.2564,2.2563,2.2562,0,2.2279,2.2334,2.239,2.2426,2.2457,2.2525,2.251,2.2544,2.2523,2.2519,2.26,2.2613,2.2656,2.2679,2.2658,2.2776,2.2754,2.2713,2.2642,2.2766,2.2814,2.2834,2.2573,2.2571,2.2569,2.2567,0,0,2.2473,2.2496,2.2517,2.2534,2.2557,2.2599,2.2665,2.2708,2.2738,2.2766,2.2821,2.289,2.2852,2.2874,2.2856,2.2906,2.3026,2.2858,2.2858,2.2888,2.3158,2.3188,2.3211,2.3003,2.3007,2.301,2.3156,0,2.2614,2.2728,2.2708,2.2819,2.287,2.2823,2.2882,2.2903,2.2902,2.2945,2.2944,2.2994,2.294,2.2953,2.3001,2.3001,2.308,2.2991,2.3054,2.3057,2.3048,2.3236,2.3269,2.3406,2.3174,2.3177,2.318,0,2.2792,2.2826,2.2943,2.2959,2.298,2.3032,2.3071,2.3113,2.3137,2.3133,2.316,2.3132,2.32,2.3131,2.3224,2.3164,2.3189,2.3194,2.3198,2.3202,2.3125,2.3245,2.3449,2.3469,2.3209,2.3206,2.3204,0,2.2921,2.2997,2.3077,2.3092,2.3114,2.3152,2.3163,2.3182,2.321,2.3245,2.3263,2.3305,2.3328,2.3362,2.3347,2.3298,2.3443,2.3372,2.3442,2.3442,2.3473,2.3471,2.3683,2.3491,2.3491,2.349,2.349,0,2.3079,2.3152,2.3135,2.3184,2.3265,2.3243,2.3324,2.3329,2.3348,2.3397,2.336,2.3408,2.3386,2.3433,2.3422,2.3501,2.3512,2.3511,2.3507,2.3513,2.3514,2.3528,2.3518,2.3496,2.3495,2.3494,2.3493,0,2.3237,2.3228,2.3312,2.3326,2.3332,2.3391,2.3403,2.345,2.3447,2.3511,2.3524,2.352,2.3573,2.3563,2.3621,2.3614,2.3713,2.3698,2.3705,2.3701,2.3771,2.3764,2.3999,2.4029,2.3819,2.3821,2.3822,0,2.3337,2.3392,2.3413,2.3444,2.3458,2.3508,2.3537,2.3518,2.3549,2.3582,2.3625,2.3675,2.3713,2.38,2.3803,2.3848,2.3833,2.3912,2.3839,2.3845,2.3834,2.383,2.3836,2.3926,2.3929,2.3931,2.3932,0,2.3517,2.3511,2.3553,2.3596,2.3631,2.3663,2.3692,2.372,2.3703,2.3741,2.3795,2.3825,2.3886,2.3936,2.3978,2.399,2.3959,2.3956,2.3974,2.3981,2.3982,2.3982,2.3743,2.395,2.3948,2.3947,2.3946,2.3945,2.3648,2.3696,2.3718,2.3768,2.3788,2.3816,2.3861,2.3865,2.3909,2.3957,2.3943,2.4005,2.4029,2.4083,2.41,2.4148,2.4119,2.4145,2.4152,2.4159,2.4167,2.3976,2.4156,2.4156,2.4155,2.4155,2.4154,0,2.3826,2.3838,2.3884,2.3926,2.3966,2.3934,2.3965,2.4,2.4055,2.408,2.412,2.4183,2.4232,2.424,2.4287,2.4324,2.4311,2.4337,2.4334,2.4337,2.4191,2.417,2.4347,2.4347,2.4347,2.4347,2.4347,2.4347,2.3922,2.4001,2.3998,2.4087,2.4099,2.416,2.418,2.4207,2.4227,2.4299,2.434,2.4345,2.4364,2.4412,2.4457,2.4458,2.4476,2.4508,2.4504,2.4366,2.4347,2.4329,2.4309,2.4512,2.4513,2.4646,2.4647,2.4648]}]]